Waarnemingen

Advertentie
Mijn weer
Kempten, Duitsland (10946): temperatuur & dauwpunt: 15.07.2017 06:00:00 - 21.07.2017 06:00:00 (CEST)Kempten, Duitsland (10946): temperatuur 5cm & temperatuur -5cm: 15.07.2017 06:00:00 - 21.07.2017 06:00:00 (CEST)Kempten, Duitsland (10946): temperatuur -20cm & temperatuur -100cm: 15.07.2017 06:00:00 - 21.07.2017 06:00:00 (CEST)Kempten, Duitsland (10946): windsnelheid & windstoten: 15.07.2017 06:00:00 - 21.07.2017 06:00:00 (CEST)Kempten, Duitsland (10946): windrichting: 15.07.2017 06:00:00 - 21.07.2017 06:00:00 (CEST)Kempten, Duitsland (10946): luchtdruk: 15.07.2017 06:00:00 - 21.07.2017 06:00:00 (CEST)Kempten, Duitsland (10946): zicht: 15.07.2017 06:00:00 - 21.07.2017 06:00:00 (CEST)Kempten, Duitsland (10946): Zonneschijnduur: 15.07.2017 06:00:00 - 21.07.2017 06:00:00 (CEST)Kempten, Duitsland (10946): neerslag: 15.07.2017 06:00:00 - 21.07.2017 06:00:00 (CEST)
Datum & Tijd tt [°C] td [°C] tt 5cm [°C] tt -5cm [°C] tt -20cm [°C] tt -100cm [°C] ff [km/u] ff [kn] fx [km/u] fx [kn] dd ppp [hPa] vv [km] sd [min] rr [mm]
21.07.2017 06:00:00 12,4 12,1 11,6 15,2 19,8 17,9 7 4 10 5 OZO 1015,9 14 0 0,0
21.07.2017 05:00:00 13,2 12,5 12,1 15,8 20,1 17,8 5 3 9 5 OZO 1015,6 16 0 0,0
21.07.2017 04:00:00 14,1 12,7 12,7 16,3 20,4 17,8 3 2 12 7 ZZW 1015,6 31 0 0,0
21.07.2017 03:00:00 13,6 13,0 13,1 16,4 20,8 17,8 6 4 10 5 OZO 1015,9 16 0 0,0
21.07.2017 02:00:00 13,7 13,2 12,7 16,6 21,2 17,8 6 4 11 6 OZO 1015,8 19 0 0,0
21.07.2017 01:00:00 13,8 13,2 13,0 17,2 21,6 17,8 7 4 9 5 O 1015,9 15 0 0,0
21.07.2017 00:00:00 14,4 13,7 13,5 18,0 22,0 17,8 6 3 9 5 O 1015,7 12 0 0,0
20.07.2017 23:00:00 15,1 14,2 14,3 18,8 22,5 17,8 0 0 9 5 N 1015,6 16 0 0,0
20.07.2017 22:00:00 16,2 14,7 14,9 19,8 22,9 17,8 3 2 7 4 O 1015,1 21 0 0,0
20.07.2017 21:00:00 18,1 15,2 16,8 21,6 23,2 17,7 1 0 8 5 O 1013,6 41 32 0,0
20.07.2017 20:00:00 20,6 14,2 21,0 23,4 23,3 17,7 6 4 14 8 ZZW 1012,8 43 60 0,0
20.07.2017 19:00:00 20,6 14,2 22,3 25,0 23,1 17,7 8 4 18 10 Z 1012,9 35 60 0,0
20.07.2017 18:00:00 19,5 14,6 22,3 25,0 23,0 17,7 10 5 18 10 ZZW 1013,9 12 53 0,0
20.07.2017 17:00:00 16,9 15,0 18,1 22,0 23,2 17,7 3 2 15 8 ZO 1014,7 29 0 0,7
20.07.2017 16:00:00 16,1 14,7 16,2 21,5 23,5 17,7 5 3 19 10 ZZW 1015,7 5 0 2,5
20.07.2017 15:00:00 18,2 13,8 18,4 22,7 23,8 17,7 11 6 23 12 WNW 1014,8 37 0 0,0
20.07.2017 14:00:00 19,1 13,9 17,9 24,2 23,9 17,7 7 4 26 14 W 1014,0 27 0 0,2
20.07.2017 13:00:00 21,4 13,7 22,0 27,2 23,6 17,6 10 5 25 13 WNW 1012,6 44 0 0,0
20.07.2017 12:00:00 23,0 13,9 26,2 29,3 23,0 17,6 12 7 28 15 W 1012,0 34 19 0,0
20.07.2017 11:00:00 23,7 13,2 28,0 26,9 22,5 17,6 9 5 15 8 WNW 1011,5 41 26 0,0
20.07.2017 10:00:00 22,1 13,1 25,3 23,9 22,2 17,6 6 3 17 9 ZW 1011,9 43 17 0,0
20.07.2017 09:00:00 21,2 14,6 24,6 22,4 22,1 17,6 6 3 14 8 Z 1012,5 21 51 0,0
20.07.2017 08:00:00 18,6 14,5 18,2 19,9 22,3 17,6 5 3 17 9 ZZO 1013,5 30 8 0,0
20.07.2017 07:00:00 18,5 13,9 17,7 19,1 22,6 17,6 9 5 23 12 Z 1013,5 36 0 0,0
20.07.2017 06:00:00 17,6 14,4 15,9 19,3 23,0 17,6 11 6 29 15 ZZW 1013,8 33 0 0,3
20.07.2017 05:00:00 19,5 13,6 17,9 19,6 23,4 17,6 19 10 34 18 ZZW 1013,5 26 0 0,0
20.07.2017 04:00:00 17,0 14,0 16,4 19,9 23,9 17,5 9 5 19 11 Z 1013,0 34 0 0,0
20.07.2017 03:00:00 17,0 14,1 15,9 20,4 24,4 17,5 9 5 16 8 ZZO 1013,0 33 0 0,0
20.07.2017 02:00:00 16,8 14,4 15,8 21,1 25,0 17,5 10 5 13 7 OZO 1013,2 32 0 0,0
20.07.2017 01:00:00 16,7 14,8 15,3 22,0 25,7 17,5 4 2 16 9 OZO 1013,6 22 0 0,1
20.07.2017 00:00:00 17,9 14,6 16,2 23,3 26,3 17,5 9 5 29 16 ZZO 1013,5 17 0 0,2
19.07.2017 23:00:00 19,9 12,7 19,6 25,0 26,9 17,5 18 10 42 23 ZZW 1013,8 29 0 0,0
19.07.2017 22:00:00 24,0 11,2 22,8 26,8 27,5 17,5 14 8 51 28 Z 1011,9 31 0 0,0
19.07.2017 21:00:00 26,4 14,4 24,3 29,0 28,0 17,5 8 5 16 9 W 1009,8 28 0 0,0
19.07.2017 20:00:00 28,5 13,5 27,0 31,6 28,2 17,5 5 3 13 7 NNW 1008,7 31 26 0,0
19.07.2017 19:00:00 29,8 12,6 31,0 34,8 28,1 17,5 8 4 15 8 N 1007,9 35 60 0,0
19.07.2017 18:00:00 30,4 11,8 33,6 36,9 27,7 17,5 4 2 12 7 OZO 1007,7 29 60 0,0
19.07.2017 17:00:00 30,6 11,8 34,3 38,4 27,0 17,4 4 2 12 7 WZW 1008,4 16 60 0,0
19.07.2017 16:00:00 29,6 12,4 33,4 38,6 26,1 17,4 9 5 16 9 OZO 1009,3 16 60 0,0
19.07.2017 15:00:00 30,1 14,7 36,2 37,9 24,9 17,4 5 3 16 9 Z 1009,8 18 60 0,0
19.07.2017 14:00:00 28,9 11,7 34,3 36,3 23,8 17,4 7 4 16 8 WNW 1010,9 34 58 0,0
19.07.2017 13:00:00 27,7 11,8 32,9 33,8 22,6 17,4 9 5 26 14 W 1011,8 19 60 0,0
19.07.2017 12:00:00 27,3 14,7 31,7 30,3 21,6 17,4 13 7 29 16 ZW 1012,3 23 60 0,0
19.07.2017 11:00:00 25,9 12,5 30,1 27,4 20,8 17,4 12 6 24 13 ZW 1013,0 22 60 0,0
19.07.2017 10:00:00 22,7 14,4 27,0 23,1 20,5 17,4 9 5 16 9 ZZO 1013,8 19 41 0,0
19.07.2017 09:00:00 19,7 13,5 20,7 20,2 20,4 17,4 6 3 16 9 ZZO 1015,0 31 38 0,0
19.07.2017 08:00:00 18,0 12,1 18,3 17,9 20,5 17,4 8 5 16 9 Z 1015,1 14 60 0,0
19.07.2017 07:00:00 15,8 11,7 15,5 16,7 20,8 17,4 6 3 12 7 ZO 1015,7 42 2 0,0
19.07.2017 06:00:00 14,9 11,4 13,4 16,5 21,2 17,4 8 5 16 9 ZO 1015,7 39 0 0,0
19.07.2017 05:00:00 15,5 11,4 14,0 16,9 21,7 17,4 10 6 19 10 ZZO 1015,2 47 0 0,0
19.07.2017 04:00:00 16,2 11,5 14,5 17,4 22,2 17,4 9 5 20 11 ZZO 1014,9 39 0 0,0
19.07.2017 03:00:00 17,3 11,3 15,5 18,0 22,7 17,3 11 6 23 12 Z 1014,6 48 0 0,0
19.07.2017 02:00:00 17,8 11,7 16,2 18,9 23,3 17,3 13 7 29 15 Z 1015,1 49 0 0,0
19.07.2017 01:00:00 18,1 12,5 16,8 20,0 23,9 17,3 9 5 22 12 ZZW 1015,4 46 0 0,0
19.07.2017 00:00:00 19,7 11,8 17,8 20,7 24,6 17,3 8 4 22 12 WZW 1016,8 43 0 0,0
18.07.2017 23:00:00 17,7 12,8 16,6 21,4 25,4 17,3 9 5 37 20 ZW 1016,7 64 0 0,2
18.07.2017 22:00:00 16,9 13,7 15,3 23,1 26,2 17,3 19 11 41 22 Z 1015,8 9 0 0,2
18.07.2017 21:00:00 18,8 14,5 18,1 26,4 26,8 17,3 18 10 33 18 Z 1016,6 34 0 0,0
18.07.2017 20:00:00 20,7 13,1 20,8 29,8 27,1 17,3 10 6 35 19 ZZO 1014,7 50 16 0,0
18.07.2017 19:00:00 23,1 13,5 25,0 34,1 26,9 17,3 11 6 33 18 ZO 1014,0 44 48 0,0
18.07.2017 18:00:00 28,2 13,7 32,2 36,0 26,5 17,3 9 5 18 10 O 1012,0 21 60 0,0
18.07.2017 17:00:00 27,8 13,5 30,6 36,5 25,8 17,3 7 4 16 9 N 1012,6 25 58 0,0
18.07.2017 16:00:00 27,9 13,4 31,9 37,4 24,9 17,3 7 4 16 9 NNW 1013,0 14 60 0,0
18.07.2017 15:00:00 27,3 13,1 32,4 36,6 23,8 17,3 9 5 16 9 O 1013,7 27 60 0,0
18.07.2017 14:00:00 27,4 13,2 32,6 35,2 22,6 17,3 6 4 15 8 NO 1014,1 47 60 0,0
18.07.2017 13:00:00 26,1 12,4 31,2 32,9 21,5 17,3 8 5 18 10 NNO 1015,0 14 60 0,0
18.07.2017 12:00:00 25,0 14,0 29,6 29,8 20,4 17,3 9 5 18 10 NNO 1015,6 25 60 0,0
18.07.2017 11:00:00 24,7 14,7 29,1 27,0 19,5 17,3 9 5 17 9 NNO 1015,8 30 60 0,0
18.07.2017 10:00:00 22,9 13,8 26,3 23,5 18,9 17,3 0 0 7 4 N 1016,6 19 60 0,0
18.07.2017 09:00:00 19,6 13,1 25,0 19,7 18,7 17,3 0 0 8 4 N 1017,7 20 60 0,0
18.07.2017 08:00:00 17,0 12,8 16,2 16,4 18,9 17,3 2 1 10 6 Z 1018,8 15 60 0,0
18.07.2017 07:00:00 13,2 12,3 12,9 15,2 19,1 17,3 8 4 10 5 OZO 1019,9 15 3 0,0
18.07.2017 06:00:00 12,7 11,9 11,9 15,3 19,5 17,3 6 4 9 5 OZO 1019,9 17 0 0,0
18.07.2017 05:00:00 12,5 11,8 11,7 15,6 19,9 17,3 7 4 9 5 OZO 1020,1 13 0 0,0
18.07.2017 04:00:00 13,3 12,4 12,2 16,2 20,3 17,3 8 4 11 6 OZO 1019,9 18 0 0,0
18.07.2017 03:00:00 13,9 12,8 12,6 16,8 20,8 17,3 8 4 9 5 OZO 1020,1 20 0 0,0
18.07.2017 02:00:00 13,9 12,9 12,6 17,5 21,2 17,3 6 3 10 6 OZO 1020,5 16 0 0,0
18.07.2017 01:00:00 15,0 13,2 13,7 18,3 21,7 17,3 0 0 8 4 N 1020,2 24 0 0,0
18.07.2017 00:00:00 15,7 13,4 13,7 19,3 22,3 17,3 0 0 0 0 N 1020,1 29 0 0,0
17.07.2017 23:00:00 16,8 13,6 14,7 20,5 22,8 17,3 2 1 11 6 NO 1019,9 33 0 0,0
17.07.2017 22:00:00 20,3 13,4 18,1 21,9 23,2 17,3 7 4 10 6 NO 1018,9 45 0 0,0
17.07.2017 21:00:00 22,1 13,3 20,2 23,9 23,5 17,3 6 3 13 7 ONO 1018,0 52 44 0,0
17.07.2017 20:00:00 24,1 13,5 25,3 26,2 23,7 17,3 6 4 13 7 NO 1017,3 38 39 0,0
17.07.2017 19:00:00 24,5 12,9 25,9 27,3 23,8 17,3 7 4 14 8 NO 1017,2 59 35 0,0
17.07.2017 18:00:00 24,6 12,7 27,1 28,7 23,7 17,3 10 5 16 8 NO 1017,5 35 16 0,0
17.07.2017 17:00:00 24,7 13,8 27,3 29,6 23,5 17,3 7 4 14 8 O 1017,8 41 8 0,0
17.07.2017 16:00:00 24,6 12,3 26,4 32,4 22,8 17,4 9 5 19 10 NNO 1018,0 15 45 0,0
17.07.2017 15:00:00 25,3 13,3 30,0 32,6 21,8 17,4 3 2 16 9 ZO 1018,0 42 51 0,0
17.07.2017 14:00:00 24,5 11,4 30,2 32,6 20,6 17,4 4 2 18 10 W 1018,5 37 60 0,0
17.07.2017 13:00:00 23,6 11,9 28,1 29,9 19,5 17,4 9 5 15 8 N 1018,9 34 60 0,0
17.07.2017 12:00:00 23,1 12,1 27,0 26,7 18,5 17,4 6 4 18 10 N 1019,2 33 60 0,0
17.07.2017 11:00:00 22,0 10,7 25,8 24,3 17,6 17,4 9 5 16 8 NO 1019,7 34 60 0,0
17.07.2017 10:00:00 20,4 11,2 24,0 21,3 17,0 17,4 2 1 9 5 N 1020,2 33 60 0,0
17.07.2017 09:00:00 17,0 10,7 20,6 17,3 16,8 17,4 6 4 13 7 ZZO 1021,5 14 60 0,0
17.07.2017 08:00:00 14,5 9,7 13,8 14,0 16,9 17,4 6 4 14 8 ZZO 1022,5 15 60 0,0
17.07.2017 07:00:00 11,3 9,4 10,7 12,5 17,2 17,4 7 4 11 6 OZO 1023,3 28 3 0,0
17.07.2017 06:00:00 9,6 8,6 8,7 12,6 17,6 17,4 8 5 12 7 OZO 1023,9 27 0 0,0
17.07.2017 05:00:00 9,8 8,6 8,9 13,0 17,9 17,4 9 5 11 6 OZO 1023,7 30 0 0,0
17.07.2017 04:00:00 10,8 9,3 9,6 13,5 18,4 17,4 9 5 12 6 OZO 1023,8 34 0 0,0
17.07.2017 03:00:00 10,8 9,3 9,7 14,0 18,8 17,4 9 5 11 6 OZO 1024,2 40 0 0,0
17.07.2017 02:00:00 10,9 9,5 9,7 14,6 19,3 17,4 8 4 10 5 OZO 1024,5 31 0 0,0
17.07.2017 01:00:00 11,5 9,6 10,4 15,3 19,8 17,4 9 5 11 6 OZO 1024,5 38 0 0,0
17.07.2017 00:00:00 11,7 9,6 10,3 16,2 20,4 17,4 6 4 10 5 OZO 1024,5 37 0 0,0
16.07.2017 23:00:00 13,2 10,0 12,0 17,4 21,0 17,4 5 3 9 5 OZO 1024,3 48 0 0,0
16.07.2017 22:00:00 14,9 10,8 13,5 18,9 21,5 17,4 7 4 9 5 O 1023,7 52 0 0,0
16.07.2017 21:00:00 18,5 9,5 15,7 21,1 21,9 17,5 1 1 12 7 NNW 1022,5 57 45 0,0
16.07.2017 20:00:00 21,0 5,8 21,7 23,6 22,0 17,5 7 4 16 8 NNW 1021,5 55 60 0,0
16.07.2017 19:00:00 21,8 7,2 23,7 25,6 21,9 17,5 8 5 16 9 NNW 1021,2 34 60 0,0
16.07.2017 18:00:00 21,5 6,9 24,3 27,1 21,6 17,5 7 4 18 10 NNW 1021,5 70 60 0,0
16.07.2017 17:00:00 21,2 7,6 25,0 27,8 21,1 17,5 9 5 23 12 NW 1022,0 25 60 0,0
16.07.2017 16:00:00 20,7 7,5 23,3 27,7 20,5 17,5 11 6 22 12 NW 1022,3 4,1 58 0,0
16.07.2017 15:00:00 20,7 8,2 25,1 26,7 19,9 17,5 8 4 17 9 WNW 1022,5 28 47 0,0
16.07.2017 14:00:00 19,7 7,3 24,3 26,0 19,2 17,5 6 4 14 8 O 1023,0 70 38 0,0
16.07.2017 13:00:00 19,1 6,6 20,9 26,3 18,5 17,5 7 4 16 9 WNW 1023,7 41 46 0,0
16.07.2017 12:00:00 19,0 6,8 22,8 24,2 17,7 17,5 4 2 17 9 NNO 1024,0 50 47 0,0
16.07.2017 11:00:00 18,3 8,1 22,8 23,3 16,9 17,5 4 2 12 6 N 1024,2 25 60 0,0
16.07.2017 10:00:00 16,6 9,4 20,1 20,2 16,3 17,5 5 3 10 5 O 1024,6 34 60 0,0
16.07.2017 09:00:00 14,0 8,9 18,0 16,5 16,0 17,5 4 2 11 6 Z 1025,5 23 59 0,0
16.07.2017 08:00:00 11,3 8,8 11,1 13,4 16,1 17,5 6 4 11 6 Z 1026,2 26 39 0,0
16.07.2017 07:00:00 9,4 8,8 9,4 12,1 16,3 17,5 4 2 8 4 OZO 1026,2 16 0 0,0
16.07.2017 06:00:00 7,8 7,4 7,7 11,5 16,7 17,5 5 3 6 4 OZO 1026,6 11 0 0,0
16.07.2017 05:00:00 8,0 7,6 6,8 11,8 17,1 17,5 2 1 7 4 O 1026,4 14 0 0,0
16.07.2017 04:00:00 8,9 8,4 7,8 12,5 17,4 17,5 5 3 7 4 OZO 1025,9 14 0 0,0
16.07.2017 03:00:00 9,4 8,6 8,4 13,2 17,8 17,5 2 1 8 5 ZO 1026,0 24 0 0,0
16.07.2017 02:00:00 10,1 9,0 9,3 13,8 18,2 17,6 0 0 8 4 N 1026,0 20 0 0,0
16.07.2017 01:00:00 10,5 9,2 9,3 14,5 18,6 17,6 0 0 5 3 N 1025,8 26 0 0,0
16.07.2017 00:00:00 10,9 9,3 9,7 15,1 19,0 17,6 0 0 5 3 N 1025,6 32 0 0,0
15.07.2017 23:00:00 12,3 9,9 11,1 16,1 19,4 17,6 0 0 5 3 N 1025,1 35 0 0,0
15.07.2017 22:00:00 12,7 9,8 12,3 16,7 19,8 17,6 0 0 6 4 N 1024,5 37 0 0,0
15.07.2017 21:00:00 14,2 10,0 12,4 18,1 20,2 17,6 0 0 9 5 N 1023,2 48 2 0,0
15.07.2017 20:00:00 16,3 8,3 15,7 19,8 20,4 17,6 5 3 14 8 NNO 1022,6 50 37 0,0
15.07.2017 19:00:00 17,1 8,5 17,8 21,1 20,4 17,6 6 3 15 8 NNO 1022,0 57 22 0,0
15.07.2017 18:00:00 17,5 8,1 18,6 22,3 20,5 17,6 5 3 21 11 WNW 1021,6 37 12 0,0
15.07.2017 17:00:00 17,6 8,6 19,2 22,7 20,4 17,6 7 4 19 11 NNW 1021,6 41 6 0,0
15.07.2017 16:00:00 17,0 8,4 18,3 24,6 20,0 17,6 9 5 21 11 NNW 1021,7 34 24 0,0
15.07.2017 15:00:00 17,1 8,0 20,9 25,2 19,4 17,6 11 6 21 12 NW 1021,6 42 29 0,0
15.07.2017 14:00:00 17,8 8,9 21,2 24,7 18,9 17,6 8 4 16 9 N 1021,3 43 26 0,0
15.07.2017 13:00:00 16,4 7,9 19,1 22,4 18,4 17,6 8 4 15 8 NW 1021,7 33 10 0,0
15.07.2017 12:00:00 15,1 8,2 18,5 21,1 18,0 17,6 6 3 16 9 NNW 1022,0 28 19 0,0
15.07.2017 11:00:00 14,6 9,0 17,2 20,2 17,6 17,6 9 5 15 8 NNW 1022,2 25 13 0,0
15.07.2017 10:00:00 14,1 9,0 15,4 18,2 17,3 17,6 5 3 14 8 NW 1022,0 28 12 0,0
15.07.2017 09:00:00 13,3 9,5 14,7 16,2 17,3 17,6 7 4 14 8 NW 1021,9 27 0 0,0
15.07.2017 08:00:00 12,4 10,0 12,5 14,9 17,4 17,6 6 3 13 7 NW 1021,6 27 0 0,0
15.07.2017 07:00:00 12,3 10,1 12,1 14,6 17,6 17,6 5 3 14 8 NNW 1021,3 24 0 0,0
15.07.2017 06:00:00 12,9 10,1 11,9 14,6 17,8 17,6 9 5 19 10 NW 1020,5 30 0 0,0

tt = temperatuur
td = dauwpunt
tt 5cm = temperatuur 5cm
tt -5cm = temperatuur -5cm
tt -20cm = temperatuur -20cm
tt -100cm = temperatuur -100cm
ff = windsnelheid
fx = windstoten
dd = windrichting
ppp = luchtdruk
vv = zicht
sd = Zonneschijnduur
rr = neerslag

Weerstations in de omgeving